Tracking 31027 objects as of 19-Jul-2025
HD Live streaming from Space Station
objects crossing your sky now

STARLINK-31535

Track STARLINK-31535 now!
10-day predictions


NORAD ID: 59504
Int'l Code: 2024-071W
Perigee: 489.5 km
Apogee: 490.8 km
Inclination: 43.0 °
Period: 94.3 minutes
Semi major axis: 6861 km
RCS: Unknown
Launch date: April 13, 2024
Source: United States (US)
Launch site: AIR FORCE EASTERN TEST RANGE (AFETR)
Your satellite tracking list
ONEWEB-0142
Track 1 satellite(s)




NASA's NSSDC Master Catalog

Two Line Element Set (TLE):
1 59504U 24071W   25199.39575435  .00000377  00000-0  23211-4 0  9994
2 59504  43.0013 230.6722 0000952 277.7813  82.2931 15.27580651 72283
Source of the keplerian elements: AFSPC